Location: Newark
(42.9277°N, 71.8621°W)
Time: 18:35:53
(UTC+00:00)

Transit 4A - Pass Details

Date: 12 May 2021
Orbit: 872 x 973 km, 66.8° (Epoch: 15 June)

Event Time Altitude Azimuth Distance (km) Brightness Sun altitude
Rises 00:36:23 0° 246° (WSW) 3,595 11.5 -6.7°
Reaches altitude 10° 00:39:21 10° 258° (WSW) 2,637 11.0 -7.1°
Maximum altitude 00:44:29 27° 315° (NW) 1,678 10.3 -7.9°
Drops below altitude 10° 00:49:32 10° 13° (NNE) 2,587 10.5 -8.7°
Sets 00:52:26 0° 25° (NNE) 3,515 11.1 -9.1°
